TINTIN B (43217 NORAD) Tracking and Keplerian Element Data

This shows tracking and keplerian element data for the satellite.

Feedback or suggestion? Click here.




ElementValue
Catalog43217
NameTINTIN B
Epoch Orbit4039
Epoch Day319.61196146
Epoch Year2018
RAAN325.4036
Inclination97.4615
Eccentricity0.0013753
Argument of Perigee71.5025
Mean Anonmoly288.7703
Mean Motion15.1968461
Decay Rate5.12E-06
L11 43217U 18020C 18319.61196146 .00000512 00000-0 27149-4 0 9999
L22 43217 97.4615 325.4036 0013753 71.5025 288.7703 15.19684610 40395

Live tracking and technical data element details for TINTIN B (NORAD 43217). TINTIN B can be tracked NOW for your location showing map with azimuth and elevation plus other details from your city location.

Track the satellite on the map from your city or location and see movement details for azimuth, elevation, latitude, longitude, range, height, and movement on the map or in text.







IsCatalogInMostPopularTable: catalog: 43217, numindb: 174
Update: records affected: 1



GetName: 43217 TINTIN B

Hit Count: updated at: Fri, 16 Nov 2018 11:30:54 GMT